User: anonymous   Login
Location: Newark
(39.0450°N, 122.9183°W)
Time: 03:28:27
(UTC+00:00)
Language:

Hubble Space Telescope - Orbit

View from above orbital plane
View from above orbital plane
View from above satellite
View from above satellite

Ground track
Ground track

The orbit data is extracted from the following two-line orbital elements,

1 20580U 90037B   19232.18493531  .00000322  00000-0  86274-5 0  9994
2 20580  28.4688 158.6948 0002884  80.2149  62.1281 15.09255027410348
Epoch (UTC): 20 August 2019 04:26:18
Eccentricity: 0.0002884
inclination: 28.4688°
perigee height: 536 km
apogee height: 540 km
right ascension of ascending node: 158.6948°
argument of perigee: 80.2149°
revolutions per day: 15.09255027
mean anomaly at epoch: 62.1281°
orbit number at epoch: 41034

The dashed part of the orbit path shows where the satellite is in the earth's shadow,  

DLR